East Coast - Cape St. Francis and south: Past 24 Hour Conditions

 

Natashquan Airport

02:00 AM EST 11 December 2016
Disclaimer

This table is a summary of hourly weather conditions for the past 24 hours.
Please note that these observations might not always be representative of weather conditions over their associated marine area.

Date / Time
(EST)
Wind(knots) Conditions Visibility(km) Pressure(kPa) Air tempC) Relative humidity(%) Dew pointC) Wind Chill
11 December 2016
2:00 WNW 17 gust 25 Mainly Clear 16 101.3 -14 68 -19 -25
1:00 WNW 15 Clear 16 101.2 -14 68 -19 -24
0:00 WNW 13 gust 19 Clear 16 101.2 -14 67 -19 -23
10 December 2016
23:00 WNW 9 gust 16 Clear 16 101.2 -14 67 -19 -22
22:00 NW 10 gust 15 Clear 16 101.2 -14 65 -19 -22
21:00 NW 13 gust 18 Clear 16 101.1 -13 66 -18 -23
20:00 NNW 14 gust 20 Mostly Cloudy 16 101.1 -13 66 -18 -22
19:00 NW 11 gust 16 Cloudy 16 101.1 -12 66 -17 -20
18:00 WNW 10 gust 15 Cloudy 16 101.0 -12 67 -16 -19
17:00 WNW 10 Mainly Clear 16 101.0 -13 70 -18 -21
16:00 WNW 5 Clear 16 101.0 -14 71 -18 -19
15:00 NNW 6 Sunny 16 100.9 -12 64 -18 -18
14:00 NW 10 Sunny 16 100.8 -10 58 -17 -18
13:00 NW 10 gust 18 Sunny 16 100.8 -10 58 -17 -17
12:00 NW 15 Cloudy 16 100.7 -10 59 -17 -19
11:00 NW 13 gust 19 Mostly Cloudy 16 100.7 -10 62 -16 -19
10:00 NNW 16 gust 21 Cloudy 16 100.7 -10 62 -16 -20
9:00 NNW 11 Cloudy 16 100.7 -11 65 -16 -19
8:00 NW 10 Cloudy 16 100.6 -11 69 -16 -19
7:00 WNW 12 Light Snow 16 100.5 -11 73 -15 -20
6:00 WNW 10 Light Snow 16 100.5 -11 70 -16 -19
5:00 W 9 Cloudy 16 100.4 -12 73 -16 -19
4:00 WNW 7 Cloudy 16 100.3 -12 72 -16 -19
3:00 WNW 6 Clear 16 100.3 -14 74 -17 -20
2:00 W 3 Clear 16 100.2 -14 79 -17 -18

Zoom-in to make a selection

Map of Atlantic - Newfoundland marine weather areas Southwestern Grand Banks - 44138 Banquereau - 44139 Tail of the Bank - 44140 Nickerson Bank - 44251 Northeast Burgeo Bank - 44255 Blanc-Sablon Airport Cap Whittle Chevery Natashquan Airport Heath Point Miscou Island Grand Étang Ingonish Beach North Mountain St.Paul Island J.A. Douglas McCurdy Sydney Airport Charlottetown Airport East Point North Cape Argentia Bonavista Burgeo Cape Race Corner Brook Daniel's Harbour Englee Ferolle Point La Scie Port aux Basques Rocky Harbour Sagona Island St. Anthony Airport St. John's Int'l Airport St. Lawrence Stephenville Airport Twillingate Winterland Wreckhouse Cartwright Airport Mary's Harbour Grates Cove Pool's Island Marticot Island Long Pond Eskasoni (First Nations) Îles de la Madeleine Airport
Legend:
buoy Buoy
land station Land Station

Atlantic - Newfoundland Area

Another Region

What we are doing

Date modified: